Location: *
(39.6167°S, 171.5333°W)
Time: 05:50:56
(UTC+00:00)

Cosmos 2237 Rocket - Pass Details

Date: 13 May 2021
Orbit: 836 x 848 km, 71.0° (Epoch: 16 June)

Event Time Altitude Azimuth Distance (km) Brightness Sun altitude
Exits shadow 16:09:29 49° 329° (NNW) 1,095 2.5 -25.6°
Drops below altitude 10° 16:13:58 10° 5° (N) 2,471 4.7 -24.7°
Sets 16:16:25 0° 9° (N) 3,397 5.5 -24.2°
